Flag for Canada Weather past 2 weeks in Moncton, New Brunswick, Canada

Now
57 °F

Sprinkles. Overcast.


Feels Like: 55 °F
Forecast: 54 / 71 °F
Wind: 9 mph from East

Location: Moncton

Current Time: Aug 23, 2014 at 11:17:03 AM

Latest Report: Aug 23, 2014 at 10:00 AM


Visibility: 15 mi

Pressure: 30.14 "Hg

Humidity: 94%

Dew point: 55 °F

Location of MonctonLocation

Historic Weather in Moncton — Graph

°F

Moncton temperature yesterday

Maximum temperature yesterday: 68 °F (at 1:00 PM)
Minimum temperature yesterday: 55 °F (at 1:00 AM)
Average temperature yesterday: 61 °F

Past Weeks' High & Low Weather Summary

 TemperatureHumidityPressure
High77 °F (Aug 13, 3:00 PM)100% (Aug 8, 6:00 PM)30.19 "Hg (Aug 8, 6:00 PM)
Low52 °F (Aug 12, 3:00 AM)41% (Aug 12, 6:00 PM)29.58 "Hg (Aug 18, 3:00 PM)
Average63 °F84%29.95 "Hg
* Reported Aug 8 10:00 AM — Aug 23 10:00 AM, Moncton, Weather by CustomWeather, © 2014

Note: Actual official high and low records may vary slightly from our data, if they occured in-between our weather recording intervals... More about our weather records

Advertising

Moncton weather history for previous 24 hours

 ConditionsComfort  
Time TempWeatherWind HumidityBarometerVisibility
10:00 AM
Aug 23
57 °FSprinkles. Overcast.9 mph94%30.14 "Hg15 mi
9:00 AM61 °FPartly sunny.8 mph88%30.13 "Hg15 mi
8:00 AM61 °FPartly sunny.9 mph83%30.13 "Hg15 mi
7:00 AM57 °FSprinkles. Mostly cloudy.7 mph94%30.13 "Hg15 mi
6:00 AM57 °FOvercast.7 mph94%30.12 "Hg15 mi
5:00 AM57 °FOvercast.5 mph94%30.11 "Hg15 mi
4:00 AM57 °FPartly cloudy.3 mph100%30.12 "Hg15 mi
3:00 AM59 °FMostly cloudy.3 mph94%30.12 "Hg15 mi
2:00 AM59 °FMostly cloudy.7 mph94%30.13 "Hg15 mi
1:00 AM59 °FMostly cloudy.5 mph94%30.13 "Hg15 mi
12:00 AM61 °FMostly cloudy.7 mph88%30.14 "Hg15 mi
11:00 PM
Aug 22
61 °FMostly cloudy.5 mph88%30.14 "Hg15 mi
10:00 PM61 °FOvercast.7 mph88%30.15 "Hg15 mi
9:00 PM61 °FOvercast.8 mph88%30.14 "Hg15 mi
8:00 PM63 °FOvercast.9 mph83%30.14 "Hg15 mi
7:00 PM63 °FPartly sunny.8 mph83%30.14 "Hg15 mi
6:00 PM64 °FPartly sunny.16 mph78%30.13 "Hg15 mi
5:00 PM66 °FPartly sunny.15 mph73%30.13 "Hg15 mi
4:00 PM66 °FBroken clouds.14 mph73%30.13 "Hg15 mi
3:00 PM66 °FBroken clouds.14 mph78%30.14 "Hg15 mi
2:00 PM68 °FPartly sunny.13 mph69%30.14 "Hg15 mi
1:00 PM68 °FMostly cloudy.13 mph73%30.15 "Hg15 mi
12:00 PM66 °FMostly cloudy.9 mph83%30.16 "Hg15 mi
11:00 AM64 °FPartly sunny.8 mph88%30.16 "Hg15 mi
Weather by CustomWeather, © 2014

See weather overviewHow to use our weather pages